HYPERVIEW 1G (RS66S)

Last updated on Thu Oct 30 2025 00:03:10 GMT+0000 (Coordinated Universal Time)

1 61772U 24199AP 25302.52152345 .00044586 00000+0 99582-3 0 9999 2 61772 97.3269 171.5408 0013361 48.1704 312.0683 15.43305282 98783
UTC large
Height (km)
Speed (km/s)
/
Latitude / Longitude
Inclination (degrees)
Orbital Period (minutes)
Azimuth
Elevation
Range (km)
Doppler Factor

Next 0 passes for location: London (51.5072 / 0.1276)

Sorry there are no passes over London.